Regional Weather Roundup
Issued by NWS

Home | Current Version | Previous Version | Graphics & Text | Print | Product List | Glossary On
Versions: 1 2 3 4 5 6 7 8 9 10 11 12 13 14 15 16 17 18 19 20 21 22 23 24 25 26 27 28 29 30 31 32 33 34 35 36 37 38 39 40 41 42 43 44 45 46 47 48 49 50
000
ASUS43 KOAX 261602
RWRNE

WEATHER ROUNDUP FOR NEBRASKA
NATIONAL WEATHER SERVICE OMAHA NE
1100 AM CDT MON SEP 26 2016

NOTES: SATELLITE DATA IS BEING USED TO AUGMENT CLOUD COVER ABOVE
       12000 FEET.
       "FAIR" INDICATES FEW OR NO CLOUDS BELOW 12,000 FEET WITH NO
       SIGNIFICANT WEATHER AND/OR OBSTRUCTIONS TO VISIBILITY.

  * THESE STATIONS DO NOT REPORT WEATHER SUCH AS RAIN...SNOW OR FOG.

NEZ001>004-019>022-054>056-261700-
NEBRASKA PANHANDLE

CITY           SKY/WX    TMP DP  RH WIND       PRES   REMARKS
SCOTTSBLUFF    SUNNY     57  41  55 NW14G20   30.37S
ALLIANCE       SUNNY     64  40  41 NW14G20   30.34S
CHADRON        SUNNY     64  39  39 NW10      30.32F
KIMBALL        SUNNY     63  41  44 NW7       30.40S
SIDNEY         SUNNY     63  41  44 NW12      30.38R
$$

NEZ057>060-069>072-079>082-261700-
SOUTHWEST NEBRASKA

CITY           SKY/WX    TMP DP  RH WIND       PRES   REMARKS
NORTH PLATTE   SUNNY     62  39  42 NW8       30.32F
IMPERIAL       SUNNY     64  35  34 SW10      30.34F
LEXINGTON      SUNNY     65  31  27 W12       30.32S
MCCOOK         SUNNY     60  41  49 SW9       30.34F
OGALLALA       SUNNY     62  40  44 W7        30.34F
$$

NEZ005>010-023>029-035>040-094-261700-
NORTH CENTRAL NEBRASKA

CITY           SKY/WX    TMP DP  RH WIND       PRES   REMARKS
VALENTINE      SUNNY     66  33  29 W9        30.26S
AINSWORTH      SUNNY     64  37  36 W15       30.26F
BROKEN BOW     SUNNY     64  33  31 W13       30.29F
O`NEILL        SUNNY     67  33  28 W13G18    30.24F
ORD            SUNNY     64  34  32 W12       30.27F
THEDFORD       SUNNY     67  38  33 W15       30.29S
$$

NEZ041-046>049-061>064-073>077-083>087-261700-
SOUTH CENTRAL NEBRASKA

CITY           SKY/WX    TMP DP  RH WIND       PRES   REMARKS
GRAND ISLAND   SUNNY     65  38  36 W10       30.30S
AURORA         SUNNY     65  38  36 W8        30.29F
HASTINGS       SUNNY     65  34  31 W14       30.31S
HEBRON         SUNNY     66  38  35 W7        30.30S
HOLDREGE       SUNNY     64  31  28 SW10G17   30.32S
KEARNEY *      SUNNY     64  32  29 W10G16    30.30S
YORK           SUNNY     66  37  34 W14       30.28F
$$

NEZ011>018-030>034-042>045-261700-
NORTHEAST NEBRASKA

CITY           SKY/WX    TMP DP  RH WIND       PRES   REMARKS
NORFOLK        SUNNY     67  36  31 W16G26    30.23F
ALBION         SUNNY     66  35  31 W14G21    30.26F
BLAIR          SUNNY     64  42  45 W9        30.23F
FREMONT        SUNNY     64  42  44 W10       30.24F
TEKAMAH        SUNNY     67  40  37 W10       30.22F
WAYNE          SUNNY     65  43  43 W16       30.23R
$$

NEZ050>053-065>068-078-088>093-261700-
SOUTHEAST NEBRASKA

CITY           SKY/WX    TMP DP  RH WIND       PRES   REMARKS
LINCOLN        SUNNY     69  41  36 W10       30.27F
OMAHA EPPLEY   SUNNY     66  40  38 W14       30.23F
BEATRICE       SUNNY     67  42  39 W8        30.28S
FALLS CITY     SUNNY     65  45  48 W7        30.26S
NEBRASKA CITY  SUNNY     65  28  24 NW13G18   30.26S
PLATTSMOUTH    SUNNY     65  33  29 W9        30.25S
$$

NEZ044-045-051>053-067-261700-
OMAHA AREA

CITY           SKY/WX    TMP DP  RH WIND       PRES   REMARKS
OMAHA EPPLEY   SUNNY     66  40  38 W14       30.23F
BLAIR          SUNNY     64  42  45 W9        30.23F
FREMONT        SUNNY     64  42  44 W10       30.24F
MILLARD        SUNNY     65  43  45 W12G17    30.23F
OFFUTT AFB     SUNNY     65  43  45 W12       30.23S
PLATTSMOUTH    SUNNY     65  33  29 W9        30.25S
WAHOO          FAIR      68  37  32 W14       30.24F
$$



USA.gov is the U.S. government's official web portal to all federal, state and local government web resources and services.